Find Starlink 37514

NORAD ID: 68899 Int'l Des: 2026-097 Owner: SPXS Country: US Constellation: starlink operational
LEOCIRCULARRETROGRADE

現在のビュー

3D地球を読み込み中...

About Starlink 37514

Starlink 37514 (NORAD 68899) is a starlink constellation satellite (v2 mini) launched Apr 30, 2026 by SPXS of US. It operates in LEO, CIRCULAR, RETROGRADE orbit with a mass of 575.00 kg.

Starlink 37514について

説明を読み込み中...

次回通過

Passes for default location (London). Set your location on the main map for personalized predictions.

高度履歴

Loading altitude history...

軌道要素

1 68899U 26097E 26170.48046743 .00017376 00000-0 53921-3 0 9993
2 68899 97.2860 5.8994 0001653 101.6995 258.4433 15.33450620 7831
Epoch: Jun 19, 2026 • Age: 12 hours

現在のステータス

高度 472.7 km
速度 7.64 km/s
衛星直下点 50.99°N, 58.57°W
打ち上げ日 Apr 30, 2026
運用期間 0.1 years
タイプ internet

技術仕様

分類 Payload
質量 575.00 kg
乾燥質量 530.00 kg
総質量 575.00 kg
長さ 0.30 m
直径 4.10 m
スパン 29.00 m
形状 Box + pan
製造者 SPXS
バスタイプ Starlink V2MO
フェーズステータス In Orbit
所有者/国 SPXS/US

Most Searched